AYN7363 UAIT-UACC

Flight info

Callsign AYN7363
Flight time N/A
Altitude 37000
Route GOBOR1C GOBOR M168 TIMKA P178 AMIGU M75 KOKON KOKON4N
Aircraft A320/M-SDE3FGHIRWY/LB1

Departure

Time 2026-04-30 14:37
Airport Hazrat Sultan International Airport (UAIT)

Arrival

Time N/A
Airport Nursultan Nazarbayev International Airport (UACC)
Time Latitude Longitude Altitude Speed Heading
2026-04-30 14:35 43.30346 68.53404 922 ft 10 kts 243°
2026-04-30 14:36 43.30320 68.53433 918 ft 6 kts 81°
2026-04-30 14:36 43.30348 68.53508 924 ft 11 kts 58°
2026-04-30 14:36 43.30462 68.53737 923 ft 60 kts 56°
2026-04-30 14:36 43.30821 68.54450 920 ft 119 kts 56°
2026-04-30 14:37 43.31378 68.55575 921 ft 164 kts 55°
2026-04-30 14:37 43.32058 68.56968 1258 ft 177 kts 56°
2026-04-30 14:37 43.32729 68.58357 1922 ft 173 kts 56°
2026-04-30 14:37 43.33412 68.59720 2539 ft 173 kts 55°
2026-04-30 14:38 43.34126 68.61141 2900 ft 190 kts 55°
2026-04-30 14:38 43.34930 68.62744 3071 ft 215 kts 55°
2026-04-30 14:38 43.35822 68.64529 3333 ft 238 kts 55°
2026-04-30 14:38 43.36806 68.66510 3656 ft 262 kts 56°
2026-04-30 14:39 43.37848 68.68611 4265 ft 272 kts 56°
2026-04-30 14:39 43.38922 68.70779 5083 ft 275 kts 56°
2026-04-30 14:39 43.40128 68.72840 5874 ft 280 kts 38°
2026-04-30 14:40 43.43860 68.73981 7396 ft 287 kts 347°
2026-04-30 14:40 43.45684 68.72887 8173 ft 289 kts 323°
2026-04-30 14:40 43.47041 68.70862 8945 ft 291 kts 298°
2026-04-30 14:40 43.47686 68.68238 9710 ft 293 kts 278°
2026-04-30 14:41 43.48023 68.65460 10427 ft 295 kts 282°
2026-04-30 14:41 43.48581 68.62725 11164 ft 298 kts 287°
2026-04-30 14:41 43.49200 68.60019 11888 ft 300 kts 286°
2026-04-30 14:41 43.49769 68.57236 12599 ft 303 kts 283°
2026-04-30 14:42 43.50250 68.54392 13328 ft 305 kts 281°
2026-04-30 14:42 43.50653 68.51503 13981 ft 308 kts 279°
2026-04-30 14:42 43.51002 68.48609 14591 ft 310 kts 278°
2026-04-30 14:42 43.51426 68.45677 15200 ft 314 kts 287°
2026-04-30 14:43 43.52342 68.42927 15799 ft 318 kts 302°
2026-04-30 14:43 43.53799 68.40542 16067 ft 335 kts 318°
2026-04-30 14:43 43.55758 68.38703 16205 ft 355 kts 328°
2026-04-30 14:43 43.57934 68.36913 16358 ft 371 kts 328°
2026-04-30 14:44 43.60177 68.35061 16783 ft 379 kts 328°
2026-04-30 14:44 43.62501 68.33293 17316 ft 384 kts 335°
2026-04-30 14:44 43.65053 68.32119 17888 ft 389 kts 347°
2026-04-30 14:44 43.67753 68.31605 18424 ft 394 kts 353°
2026-04-30 14:45 43.70495 68.31236 18952 ft 397 kts 353°
2026-04-30 14:45 43.73268 68.30865 19494 ft 400 kts 353°
2026-04-30 14:45 43.76021 68.30499 20039 ft 403 kts 353°
2026-04-30 14:45 43.78836 68.30128 20587 ft 406 kts 353°
2026-04-30 14:46 43.81666 68.29752 21125 ft 409 kts 353°
2026-04-30 14:46 43.84520 68.29368 21635 ft 413 kts 353°
2026-04-30 14:46 43.87354 68.28981 22123 ft 415 kts 352°
2026-04-30 14:46 43.89303 68.28712 22452 ft 417 kts 352°
2026-04-30 14:47 43.93151 68.28179 23071 ft 421 kts 352°
2026-04-30 14:47 43.96079 68.27775 23509 ft 423 kts 352°
2026-04-30 14:47 43.99028 68.27373 23871 ft 426 kts 352°
2026-04-30 14:47 44.01985 68.26973 24236 ft 428 kts 352°
2026-04-30 14:48 44.04962 68.26569 24603 ft 430 kts 352°
2026-04-30 14:48 44.07954 68.26162 24971 ft 432 kts 352°
2026-04-30 14:48 44.10928 68.25754 25336 ft 434 kts 352°
2026-04-30 14:48 44.13972 68.25494 25696 ft 438 kts 359°
2026-04-30 14:49 44.17020 68.25867 26049 ft 443 kts
2026-04-30 14:49 44.20076 68.26504 26398 ft 445 kts
2026-04-30 14:49 44.23146 68.27146 26755 ft 447 kts
2026-04-30 14:49 44.26224 68.27790 27103 ft 449 kts
2026-04-30 14:50 44.32403 68.29072 27797 ft 452 kts
2026-04-30 14:50 44.35525 68.29720 28147 ft 454 kts
2026-04-30 14:51 44.41803 68.31027 28803 ft 458 kts
2026-04-30 14:51 44.44977 68.31693 29145 ft 460 kts
2026-04-30 14:51 44.50227 68.32800 29951 ft 457 kts
2026-04-30 14:52 44.54397 68.33666 30488 ft 456 kts
2026-04-30 14:52 44.59617 68.34750 31125 ft 455 kts
2026-04-30 14:52 44.62749 68.35410 31516 ft 454 kts
2026-04-30 14:53 44.69006 68.36728 32279 ft 453 kts
2026-04-30 14:53 44.72126 68.37389 32671 ft 453 kts
2026-04-30 14:54 44.78355 68.38709 33471 ft 452 kts
2026-04-30 14:54 44.84534 68.40017 34179 ft 451 kts
2026-04-30 14:55 44.90748 68.41335 34733 ft 452 kts
2026-04-30 14:55 44.93861 68.41990 35004 ft 452 kts
2026-04-30 14:55 45.00102 68.43304 35522 ft 453 kts
2026-04-30 14:56 45.06356 68.44629 36022 ft 454 kts
2026-04-30 14:56 45.12579 68.45969 36486 ft 455 kts
2026-04-30 14:57 45.15712 68.46645 36705 ft 456 kts
2026-04-30 14:57 45.22031 68.48004 36858 ft 463 kts
2026-04-30 14:58 45.28395 68.49372 36860 ft 466 kts
2026-04-30 14:58 45.38042 68.51444 36860 ft 467 kts
2026-04-30 15:00 45.54101 68.54911 36873 ft 467 kts
2026-04-30 15:01 45.67009 68.57720 36884 ft 469 kts
2026-04-30 15:01 45.76649 68.59838 36896 ft 469 kts
2026-04-30 15:02 45.83100 68.61248 36894 ft 468 kts
2026-04-30 15:03 45.99221 68.64806 36891 ft 468 kts
2026-04-30 15:04 46.15323 68.68372 36897 ft 469 kts
2026-04-30 15:06 46.31424 68.71961 36896 ft 469 kts
2026-04-30 15:07 46.44310 68.74840 36905 ft 469 kts
2026-04-30 15:08 46.57223 68.77753 36905 ft 469 kts
2026-04-30 15:09 46.73333 68.81387 36916 ft 469 kts
2026-04-30 15:10 46.86203 68.84324 36904 ft 469 kts
2026-04-30 15:11 47.05544 68.88762 36912 ft 469 kts
2026-04-30 15:13 47.21701 68.92481 36920 ft 469 kts
2026-04-30 15:14 47.44253 68.97708 36922 ft 469 kts
2026-04-30 15:17 47.73245 69.04511 36928 ft 468 kts
2026-04-30 15:19 47.98961 69.10617 36933 ft 467 kts